Temperature
5 5 5 5 5 5 5 5 5 5 5 5 5 5 5 5 5 5 5 5 5 5 5 5 5 4 4 4 4 4 4 4 3 3 3 3 4 4 4 4 3 3 3
4 4 4 4 4 5 5 5 5 5 5 4 4 4 4 5 5 5 4 4 4 4 4 4 4 4 4 4 4 4 3 3 3 3 3 3 3 3 3 3 3 3 3
4 4 4 4 4 4 4 4 4 4 4 4 4 4 4 4 4 4 4 4 4 4 4 4 4 4 3 3 3 3 3 3 3 2 2 3 3 3 3 3 2 2 2
3 3 3 3 3 3 3 3 3 3 3 3 3 3 3 3 3 3 3 3 3 3 3 3 3 3 3 3 2 3 2 2 2 2 2 2 2 2 2 2 2 2 2
3 3 3 3 3 3 3 3 3 3 3 3 3 3 3 3 3 3 2 2 2 2 2 2 2 2 2 2 2 2 2 2 2 2 2 2 2 2 2 2 1 1 1
2 2 2 2 2 2 2 2 2 2 2 2 2 2 2 2 2 2 2 2 2 2 2 2 2 2 2 2 2 2 2 2 2 2 1 1 1 1 1 1 1 1 1
2 2 2 2 2 2 2 2 2 2 2 2 2 2 2 2 2 2 2 1 1 1 1 1 1 1 1 1 1 1 1 1 1 1 1 1 1 1 1 1 0 0 0
1 1 1 1 1 1 1 1 1 1 1 1 1 1 1 1 1 1 1 1 1 1 1 1 1 1 1 1 1 1 1 1 1 1 1 1 1 1 0 0 0 -0 -0
1 1 1 1 1 1 1 1 1 1 1 1 1 1 1 1 1 1 1 0 0 0 0 0 0 0 0 0 0 0 0 0 0 0 0 0 0 0 0 -0 -0 -1 -1
0 0 0 0 0 0 0 0 0 0 1 1 0 0 0 0 0 0 0 0 -0 -0 -0 0 0 0 0 0 -0 -0 -0 -0 -0 -0 -0 -0 -0 -0 -0 -0 -1 -1 -1
-0 -0 0 0 0 0 -0 -0 -0 -0 -0 -0 -0 -0 -0 -0 -0 -0 -0 -0 -0 -0 -0 -0 -0 -0 -0 -0 -0 -0 -0 -1 -1 -1 -1 -1 -1 -1 -1 -1 -1 -1 -1
-0 -0 -0 -0 -0 -0 -1 -1 -1 -1 -1 -1 -1 -1 -1 -0 -0 -0 -1 -1 -1 -1 -1 -0 -0 -0 -0 -1 -1 -1 -1 -1 -1 -1 -1 -1 -1 -1 -1 -1 -1 -2 -2
-1 -1 -1 -1 -1 -1 -1 -1 -1 -1 -1 -1 -1 -1 -1 -1 -1 -1 -1 -1 -1 -1 -1 -1 -1 -1 -1 -1 -1 -1 -1 -1 -2 -1 -1 -1 -1 -2 -2 -2 -2 -2 -2
-1 -1 -1 -1 -1 -1 -1 -1 -1 -1 -2 -2 -2 -2 -2 -1 -1 -1 -1 -1 -2 -2 -2 -2 -2 -2 -2 -2 -2 -2 -2 -2 -2 -2 -2 -2 -2 -2 -2 -2 -2 -2 -2
-2 -2 -2 -2 -2 -2 -2 -2 -2 -2 -2 -2 -2 -2 -2 -2 -2 -2 -2 -2 -2 -2 -2 -2 -2 -2 -2 -2 -2 -2 -2 -2 -2 -2 -2 -3 -3 -3 -3 -2 -2 -3 -3
-2 -2 -2 -2 -2 -2 -2 -2 -2 -2 -2 -2 -2 -2 -2 -2 -2 -2 -2 -2 -2 -3 -3 -3 -3 -3 -3 -3 -3 -3 -3 -3 -3 -3 -3 -3 -3 -3 -3 -3 -3 -3 -3
-3 -3 -3 -3 -3 -3 -3 -3 -3 -3 -2 -2 -2 -2 -2 -2 -2 -2 -2 -3 -3 -3 -3 -3 -3 -4 -4 -4 -4 -3 -3 -3 -3 -3 -3 -3 -3 -3 -3 -4 -4 -4 -3
-3 -3 -3 -3 -3 -3 -3 -3 -3 -3 -3 -3 -3 -3 -3 -3 -3 -3 -3 -3 -3 -3 -4 -4 -4 -4 -4 -4 -4 -4 -4 -4 -4 -4 -4 -4 -4 -4 -4 -4 -4 -4 -4
-4 -4 -4 -4 -4 -4 -4 -4 -4 -4 -3 -3 -3 -3 -3 -3 -3 -3 -3 -4 -4 -4 -4 -4 -4 -4 -4 -4 -4 -4 -4 -4 -4 -4 -4 -4 -4 -4 -4 -4 -4 -4 -4
-4 -4 -4 -4 -4 -4 -4 -4 -4 -4 -4 -4 -4 -4 -4 -4 -4 -4 -4 -4 -4 -4 -4 -4 -4 -4 -5 -5 -5 -5 -5 -5 -4 -4 -4 -4 -4 -4 -4 -4 -4 -5 -5
-4 -4 -4 -5 -5 -4 -4 -4 -4 -4 -4 -4 -4 -4 -4 -4 -4 -4 -4 -4 -4 -4 -5 -5 -5 -5 -5 -5 -5 -5 -5 -5 -5 -5 -5 -5 -5 -5 -5 -5 -5 -5 -5
-5 -5 -5 -5 -5 -5 -5 -5 -5 -5 -5 -5 -5 -4 -4 -5 -5 -5 -5 -5 -5 -5 -5 -5 -5 -5 -5 -5 -5 -5 -5 -5 -5 -5 -5 -5 -5 -5 -5 -5 -5 -5 -5
-5 -5 -5 -5 -5 -5 -5 -5 -5 -5 -5 -5 -5 -5 -5 -5 -5 -5 -5 -5 -5 -5 -5 -5 -5 -5 -5 -5 -5 -5 -5 -5 -5 -5 -5 -5 -5 -5 -5 -5 -5 -5 -5
-5 -5 -6 -6 -6 -6 -5 -5 -5 -5 -5 -5 -5 -5 -5 -5 -5 -5 -5 -5 -5 -5 -5 -5 -6 -6 -6 -6 -6 -6 -6 -6 -5 -5 -5 -5 -5 -5 -5 -5 -5 -5 -5
-6 -6 -6 -6 -6 -6 -6 -6 -6 -5 -5 -5 -5 -5 -5 -5 -5 -5 -5 -5 -6 -6 -6 -6 -6 -6 -6 -6 -6 -6 -6 -6 -6 -6 -5 -5 -5 -5 -5 -5 -5 -6 -6
-6 -6 -6 -6 -6 -6 -6 -6 -6 -6 -6 -6 -6 -6 -6 -6 -6 -6 -6 -6 -6 -6 -6 -6 -6 -6 -6 -6 -6 -6 -6 -6 -6 -6 -6 -6 -6 -6 -6 -6 -6 -6 -6
Wind_Speed
1 2 2 3 3 3 3 3 2 2 2 3 3 3 3 3 4 3 3 4 5 4 4 4 5 4 3 3 3 3 3 4 5 4 3 3 3 4 4 5 5 5 5
1 1 2 3 3 3 3 3 3 2 2 2 3 3 3 3 3 4 4 4 5 5 5 4 4 3 4 3 3 4 3 3 4 5 3 3 4 4 4 4 4 5 5
1 1 2 2 2 2 2 2 2 2 2 2 3 3 3 3 3 4 4 4 5 5 5 5 5 4 4 3 4 4 3 3 3 4 3 3 3 3 4 4 4 4 5
1 1 1 1 1 2 2 2 2 3 3 3 3 3 4 3 3 4 4 4 5 4 5 5 5 5 5 4 4 4 4 3 3 3 3 3 3 3 3 3 4 4 4
1 1 0 0 1 1 2 2 2 2 3 3 3 3 3 3 4 4 4 4 4 4 4 5 5 5 5 4 4 4 4 3 3 3 3 3 2 2 3 3 4 4 4
0 0 0 1 1 1 2 2 2 2 3 3 3 3 3 3 4 5 5 5 4 4 4 4 4 4 5 5 5 4 5 5 5 4 3 4 4 4 4 3 3 4 4
1 1 1 1 1 2 2 2 2 3 3 3 4 4 4 4 4 5 6 5 5 5 5 4 4 4 4 5 5 5 5 5 6 5 5 6 5 4 4 4 4 5 5
2 2 2 2 2 3 3 3 3 3 3 4 4 4 4 4 5 5 5 6 5 5 5 5 5 5 4 5 4 5 5 5 6 6 6 6 5 5 5 5 5 5 5
3 3 4 4 3 3 4 4 4 4 4 4 4 4 5 5 5 6 6 4 5 5 5 5 5 5 5 5 5 5 5 5 5 7 7 6 6 6 5 3 3 3 4
4 4 4 4 4 4 4 4 4 4 4 4 4 4 5 5 5 6 6 4 5 5 5 5 6 6 6 6 6 5 6 5 4 4 5 5 5 5 6 5 4 4 3
4 4 5 5 5 5 5 4 4 4 4 4 5 5 5 5 5 6 7 5 5 5 5 5 5 6 7 8 7 6 6 5 4 4 4 4 3 3 4 5 5 4 4
4 4 5 5 4 4 4 4 4 4 4 5 4 5 4 5 5 6 7 7 6 6 6 5 5 6 7 7 6 6 6 5 4 4 4 4 4 3 4 4 5 5 5
4 5 4 4 4 4 4 4 4 4 4 4 4 4 4 4 5 7 7 7 7 6 5 5 5 6 6 6 6 6 5 4 4 4 5 5 4 4 3 3 3 3 3
4 4 4 4 4 4 4 4 4 4 4 5 5 5 5 4 4 4 4 4 5 5 4 5 5 5 4 4 4 5 5 5 5 5 5 4 3 3 3 2 2 2 2
4 4 4 4 4 4 4 4 5 5 5 6 5 5 5 5 5 4 4 3 4 4 3 3 3 3 4 4 4 4 4 4 5 4 4 3 3 3 3 2 2 2 3
4 4 4 3 3 3 3 3 4 5 6 7 7 6 5 6 5 5 5 5 5 4 3 3 4 4 5 5 4 4 4 4 5 4 4 4 4 4 3 2 2 3 3
5 4 4 4 4 4 4 4 3 3 4 5 6 6 6 6 6 6 6 5 5 5 4 4 5 5 5 5 5 5 5 4 4 4 4 4 4 4 3 3 3 3 3
4 4 4 4 4 4 4 4 4 4 3 3 4 5 5 5 5 5 5 4 4 4 4 5 5 5 5 5 5 5 4 4 4 4 4 4 4 4 4 4 4 4 4
4 3 3 3 4 4 4 4 4 4 4 3 3 3 4 4 5 5 4 4 4 5 4 5 5 5 5 4 4 4 4 4 4 4 4 4 4 4 4 4 4 5 4
3 4 4 3 3 3 4 4 4 4 4 3 3 3 2 2 3 3 4 4 4 4 5 5 5 5 5 4 4 4 4 4 4 4 4 4 4 4 5 5 4 4 4
3 3 3 3 3 3 3 4 4 3 3 3 3 4 4 3 4 4 4 4 4 5 5 5 4 4 4 4 4 4 5 4 4 4 4 4 4 4 4 4 4 4 4
2 3 3 3 3 3 3 3 3 3 4 4 3 3 4 3 3 3 4 4 4 4 4 4 4 4 4 5 5 5 5 5 5 4 4 4 4 4 4 4 4 4 3
2 2 2 2 2 3 3 3 3 3 3 3 3 3 3 3 3 3 3 3 3 3 3 4 4 4 4 5 5 5 5 5 5 4 4 4 4 4 4 4 4 4 4
2 2 2 2 2 2 2 2 3 3 3 3 3 3 3 3 3 3 3 3 3 3 3 4 4 5 5 5 5 5 6 6 5 5 5 5 4 4 4 4 4 4 4
2 2 2 2 2 2 2 2 3 3 3 3 3 3 2 2 2 3 3 3 3 4 4 4 4 4 5 6 5 5 6 6 6 5 4 4 4 4 4 4 3 3 3
1 2 2 2 2 2 2 3 3 3 3 2 2 3 3 3 3 3 3 3 3 3 4 4 4 4 5 5 5 5 5 6 5 5 4 3 4 3 3 3 3 3 3
Wind_Direction
158 165 166 167 170 165 165 170 163 152 162 167 179 185 189 191 185 185 196 202 206 206 204 206 214 219 218 224 231 235 241 246 254 266 282 281 278 285 292 293 292 289 287
142 148 150 160 159 155 154 159 155 150 161 172 177 185 191 192 188 191 200 210 212 209 208 211 217 220 219 223 225 230 238 250 256 264 279 284 288 288 296 297 296 293 293
120 125 128 149 156 162 158 157 156 160 174 176 182 190 190 191 196 200 202 212 217 216 212 215 217 220 226 228 228 231 236 248 257 257 270 286 294 293 297 298 293 295 300
92 94 105 138 163 171 164 166 174 181 189 189 192 198 196 197 202 206 206 213 217 216 214 217 219 220 227 229 232 233 235 239 246 244 260 275 284 294 283 292 298 303 302
104 90 62 310 205 168 172 179 185 194 201 201 200 201 199 201 206 207 208 213 216 215 217 221 223 228 234 232 234 236 233 234 238 240 253 271 283 286 276 286 291 300 296
204 234 264 268 229 197 192 189 191 204 209 207 209 212 213 212 203 205 208 209 213 216 219 222 225 226 226 231 243 241 236 233 234 238 250 254 260 270 279 283 289 296 290
241 252 256 246 242 223 209 199 207 217 216 215 219 220 224 222 207 206 209 212 214 220 223 225 227 230 232 235 235 232 236 242 243 245 247 249 253 252 258 268 268 269 277
237 246 252 244 243 236 221 217 222 224 224 224 227 230 233 229 214 216 213 217 224 227 228 227 228 231 231 236 238 239 242 245 247 247 252 254 253 250 244 255 268 278 291
240 244 246 239 238 237 232 231 232 229 231 235 233 233 238 237 223 218 218 220 225 230 232 233 232 233 230 229 237 242 250 257 255 253 259 258 257 250 245 250 256 267 281
244 245 243 237 234 236 238 238 236 231 233 236 238 238 241 246 234 220 220 222 227 232 234 233 232 237 239 231 236 238 245 255 255 255 256 254 250 241 232 234 236 243 264
249 241 238 235 235 236 238 239 233 231 231 235 241 243 244 246 238 230 226 226 229 233 236 236 234 233 239 237 237 239 246 253 252 252 256 258 253 245 240 241 242 239 243
246 236 236 237 238 234 233 234 231 227 228 235 241 247 246 243 242 237 232 235 235 235 239 241 241 234 235 237 238 240 243 244 245 246 249 253 252 250 250 251 252 255 257
242 236 238 241 241 235 232 232 231 228 229 233 235 242 246 245 240 237 232 235 235 239 246 247 249 238 235 238 237 237 238 239 239 241 246 253 256 252 248 253 259 267 283
238 239 239 237 240 238 234 230 230 229 231 233 233 238 244 245 241 233 229 235 238 241 247 242 238 235 236 244 248 244 241 239 240 244 247 257 258 249 241 243 247 250 275
241 239 238 238 240 240 240 238 237 239 239 237 236 234 235 241 244 241 237 238 239 236 236 239 239 237 239 242 246 247 244 240 239 241 241 248 252 247 246 241 239 241 253
238 239 238 235 235 236 240 249 251 248 255 250 246 243 245 251 244 235 238 243 240 229 233 230 233 237 240 244 247 250 247 244 244 244 242 241 243 241 241 239 234 237 249
241 242 237 233 232 234 234 237 245 251 242 241 241 243 246 242 234 233 235 232 228 224 235 234 236 239 244 248 249 249 251 249 244 242 242 241 242 240 237 236 231 239 251
248 245 240 235 233 234 234 235 235 238 243 248 246 239 236 233 232 232 228 225 233 236 239 238 240 242 245 248 252 253 251 248 241 241 240 237 235 236 234 232 229 236 244
249 242 243 238 234 234 233 234 233 235 239 243 249 242 229 228 225 220 217 229 232 236 240 241 244 248 250 249 249 251 251 247 245 243 239 235 231 233 236 234 235 237 239
251 241 243 238 230 227 226 227 227 227 230 232 236 239 234 226 225 226 232 236 236 237 239 243 246 249 249 247 246 246 250 249 245 242 242 236 232 232 235 234 233 233 239
251 239 236 235 231 227 225 224 222 222 225 231 239 239 236 230 232 234 235 238 239 239 241 244 245 243 244 244 245 245 247 248 245 244 245 244 237 234 235 234 232 232 236
246 243 238 234 234 229 225 222 221 222 226 232 243 245 237 237 238 240 242 245 247 245 245 244 244 243 242 241 241 244 246 247 245 243 244 244 239 234 233 232 231 227 224
240 240 243 242 238 228 228 224 222 223 227 233 237 241 239 240 243 246 252 257 256 256 254 248 247 250 254 254 251 246 245 245 246 244 243 244 240 233 230 231 227 224 222
241 236 237 239 234 230 226 226 225 225 227 233 237 238 239 241 245 251 256 261 264 262 259 256 254 253 257 261 258 255 255 260 263 250 239 237 234 230 228 227 225 222 217
248 243 238 234 230 230 230 230 227 225 226 231 235 238 242 246 251 255 258 258 261 260 262 262 258 259 259 261 262 263 262 265 266 259 244 230 226 223 221 220 215 208 204
245 245 241 235 231 229 228 230 229 227 228 232 237 241 243 244 249 254 257 258 258 260 263 263 262 266 266 263 262 263 265 266 263 256 244 225 217 213 210 211 202 196 193
Height
1465 1466 1467 1469 1470 1471 1473 1474 1475 1477 1478 1480 1481 1482 1484 1485 1485 1486 1487 1488 1489 1489 1490 1491 1492 1493 1494 1495 1495 1495 1496 1496 1495 1495 1494 1494 1493 1493 1492 1491 1490 1489 1488
1462 1463 1465 1466 1468 1469 1470 1472 1473 1474 1476 1477 1478 1479 1481 1481 1482 1483 1484 1484 1485 1485 1486 1487 1488 1489 1490 1491 1491 1492 1492 1492 1493 1491 1491 1490 1490 1489 1489 1488 1487 1486 1485
1461 1462 1463 1464 1465 1467 1468 1469 1471 1472 1473 1474 1475 1476 1477 1478 1479 1479 1480 1480 1481 1482 1483 1484 1485 1485 1486 1487 1487 1488 1489 1489 1489 1488 1487 1487 1486 1486 1485 1485 1484 1483 1481
1459 1460 1461 1462 1464 1465 1466 1467 1468 1470 1471 1472 1473 1473 1474 1474 1475 1476 1476 1477 1477 1478 1479 1480 1481 1482 1482 1483 1484 1484 1485 1485 1485 1485 1484 1484 1483 1483 1482 1481 1480 1479 1478
1457 1458 1459 1461 1462 1463 1464 1465 1466 1467 1468 1469 1470 1470 1471 1471 1471 1472 1472 1473 1474 1475 1476 1476 1477 1477 1478 1479 1480 1481 1481 1481 1481 1481 1481 1480 1480 1479 1479 1478 1477 1476 1475
1456 1457 1458 1459 1460 1461 1462 1463 1463 1464 1465 1466 1466 1467 1467 1468 1468 1469 1469 1470 1471 1471 1472 1472 1473 1474 1475 1475 1476 1477 1478 1478 1478 1477 1477 1477 1476 1476 1476 1475 1474 1473 1471
1454 1455 1456 1456 1457 1458 1459 1460 1461 1461 1462 1463 1463 1464 1464 1465 1465 1466 1466 1467 1467 1467 1468 1469 1470 1470 1471 1472 1472 1473 1473 1474 1474 1474 1473 1473 1473 1473 1472 1472 1471 1470 1469
1452 1452 1453 1454 1455 1456 1456 1457 1457 1458 1459 1459 1460 1460 1461 1461 1462 1462 1463 1463 1463 1464 1465 1465 1466 1467 1467 1468 1468 1468 1469 1469 1470 1470 1470 1469 1469 1469 1468 1468 1467 1466 1465
1449 1449 1450 1451 1452 1452 1453 1453 1454 1455 1455 1456 1456 1456 1457 1457 1458 1459 1459 1459 1460 1460 1461 1462 1462 1463 1464 1464 1465 1464 1464 1465 1466 1466 1466 1465 1465 1465 1464 1464 1463 1463 1461
1446 1446 1447 1448 1448 1449 1449 1450 1450 1451 1451 1452 1452 1452 1453 1453 1454 1454 1455 1455 1456 1456 1457 1457 1458 1459 1460 1460 1460 1460 1460 1461 1461 1461 1461 1461 1461 1460 1460 1460 1459 1459 1457
1442 1443 1443 1444 1444 1445 1445 1446 1446 1447 1447 1448 1448 1448 1448 1449 1449 1450 1451 1451 1452 1452 1453 1453 1454 1455 1455 1456 1456 1456 1457 1457 1457 1457 1457 1456 1456 1456 1455 1456 1455 1455 1454
1438 1439 1439 1440 1440 1441 1441 1441 1442 1443 1443 1443 1444 1444 1444 1444 1445 1445 1446 1447 1447 1448 1448 1449 1450 1450 1451 1452 1452 1452 1453 1453 1453 1453 1452 1451 1451 1451 1451 1451 1452 1451 1451
1434 1434 1435 1435 1436 1436 1437 1437 1437 1438 1438 1439 1439 1439 1439 1440 1440 1441 1442 1442 1443 1444 1444 1445 1446 1446 1447 1447 1447 1448 1448 1448 1448 1448 1447 1447 1447 1447 1447 1447 1447 1447 1447
1430 1430 1430 1430 1431 1432 1432 1433 1433 1433 1434 1434 1434 1434 1435 1436 1436 1437 1437 1438 1439 1439 1440 1441 1441 1442 1442 1442 1442 1443 1443 1443 1443 1443 1443 1443 1443 1443 1443 1443 1443 1443 1442
1426 1426 1426 1426 1427 1427 1427 1428 1428 1429 1429 1430 1430 1430 1431 1431 1432 1433 1433 1434 1434 1435 1436 1436 1437 1437 1437 1437 1438 1438 1438 1438 1438 1438 1438 1438 1438 1439 1439 1439 1439 1439 1438
1422 1422 1422 1422 1423 1423 1423 1423 1424 1424 1425 1425 1426 1426 1426 1427 1428 1428 1429 1430 1431 1431 1432 1432 1432 1432 1432 1432 1433 1433 1433 1433 1433 1434 1434 1434 1434 1434 1434 1434 1435 1435 1435
1418 1418 1418 1418 1418 1419 1419 1419 1419 1420 1420 1421 1421 1422 1422 1423 1423 1424 1425 1426 1427 1427 1427 1427 1427 1428 1428 1428 1428 1429 1429 1429 1429 1429 1430 1430 1430 1430 1431 1430 1430 1431 1431
1414 1413 1414 1414 1414 1415 1415 1415 1415 1416 1416 1416 1417 1418 1418 1419 1420 1420 1421 1422 1422 1422 1422 1423 1423 1423 1424 1424 1424 1424 1424 1424 1425 1425 1425 1426 1426 1426 1426 1426 1427 1427 1427
1409 1409 1409 1410 1410 1411 1411 1411 1412 1412 1412 1412 1413 1414 1415 1415 1416 1416 1417 1417 1417 1417 1418 1418 1419 1419 1419 1420 1420 1420 1420 1420 1420 1421 1421 1422 1422 1422 1422 1423 1423 1423 1423
1405 1405 1406 1406 1406 1406 1407 1407 1408 1408 1408 1408 1409 1410 1410 1411 1411 1411 1412 1413 1413 1413 1414 1414 1414 1414 1415 1415 1416 1416 1416 1416 1416 1417 1417 1418 1418 1418 1419 1419 1419 1419 1419
1402 1402 1402 1402 1402 1403 1403 1403 1404 1404 1404 1405 1405 1406 1407 1407 1407 1407 1408 1408 1409 1409 1410 1410 1410 1410 1410 1411 1411 1411 1412 1412 1413 1413 1413 1414 1414 1414 1415 1415 1416 1416 1416
1399 1399 1399 1399 1399 1399 1399 1400 1400 1401 1401 1401 1402 1403 1403 1404 1404 1404 1404 1404 1405 1405 1406 1406 1406 1406 1406 1406 1407 1407 1407 1408 1408 1409 1409 1410 1410 1410 1411 1412 1412 1412 1412
1396 1396 1395 1395 1395 1396 1396 1396 1397 1397 1397 1398 1398 1399 1399 1400 1400 1400 1400 1401 1401 1402 1402 1402 1402 1401 1402 1402 1403 1403 1403 1404 1404 1405 1405 1406 1406 1406 1407 1408 1408 1409 1409
1394 1393 1393 1393 1393 1393 1393 1393 1394 1394 1395 1395 1395 1396 1396 1396 1396 1397 1397 1397 1398 1398 1398 1398 1397 1398 1398 1398 1399 1399 1400 1400 1401 1401 1402 1402 1402 1403 1404 1404 1405 1406 1406
1392 1391 1391 1390 1390 1390 1391 1391 1391 1391 1392 1392 1392 1392 1393 1393 1393 1394 1394 1394 1394 1394 1394 1394 1394 1394 1394 1394 1395 1395 1396 1397 1397 1398 1398 1399 1399 1400 1400 1401 1402 1403 1403
1389 1389 1389 1388 1388 1388 1388 1388 1388 1389 1389 1389 1390 1390 1390 1390 1390 1391 1391 1391 1391 1390 1390 1391 1391 1391 1391 1391 1391 1392 1393 1393 1394 1395 1395 1396 1396 1397 1398 1399 1399 1400 1401